Weather History for KPYM - September, 2012

Change the Weather History Date:

Saturday, September 8, 2012

  Actual Average Record
Temperature  
Mean Temperature 76 °F -  
Max Temperature 80 °F 74 °F 94 °F (1983)
Min Temperature 71 °F 52 °F 40 °F (1984)
Cooling Degree Days 10    
Growing Degree Days 26 (Base 50)    
Moisture  
Dew Point 70 °F    
Average Humidity 84    
Maximum Humidity 94    
Minimum Humidity 65    
Precipitation  
Precipitation 0.28 in - - ()
Sea Level Pressure  
Sea Level Pressure 29.80 in    
Wind  
Wind Speed 9 mph (SSW)    
Max Wind Speed 20 mph    
Max Gust Speed 30 mph    
Visibility 9 miles    
Events Rain    
Averages and records for this station are not official NWS values.
T = Trace of Precipitation, MM = Missing Value Source: NWS Daily Summary

Daily Weather History Graph

Daily Weather History Graph

Search for Another Location

Airport or City:

Trip Planner

Search our weather history database for the weather conditions in past years. The results will help you decide how hot, cold, wet, or windy it might be!

Date:

Astronomy

Sep. 08, 2012 Rise Set
Actual Time 6:16 AM EDT 7:03 PM EDT
Civil Twilight 5:48 AM EDT 7:31 PM EDT
Nautical Twilight 5:14 AM EDT 8:05 PM EDT
Astronomical Twilight 4:39 AM EDT 8:40 PM EDT
Moon 11:39 PM EDT (9/8) 2:02 PM EDT (9/8)
Length of Visible Light 13h 43m
Length of Day
12h 47m
Waning Gibbous, 49% of the Moon is Illuminated
Sep 8
Waning Gibbous
Sep 15
New
Sep 22
First Quarter
Sep 29
Full
Oct 8
Last Quarter

Hourly Weather History & Observations

Time (EDT) Temp. Heat Index Dew Point Humidity Pressure Visibility Wind Dir Wind Speed Gust Speed Precip Events Conditions
12:52 AM 72.0 °F - 69.1 °F 91% 29.89 in 8.0 mi South 5.8 mph - N/A   Partly Cloudy
1:13 AM 71.6 °F - 69.8 °F 94% 29.89 in 9.0 mi SSW 6.9 mph - N/A   Mostly Cloudy
1:47 AM 73.4 °F - 69.8 °F 88% 29.89 in 8.0 mi SSW 6.9 mph - N/A   Overcast
1:52 AM 73.0 °F - 69.1 °F 87% 29.89 in 9.0 mi SSW 4.6 mph - N/A   Overcast
2:52 AM 73.0 °F - 69.1 °F 87% 29.92 in 9.0 mi SSW 6.9 mph - N/A   Scattered Clouds
3:30 AM 73.4 °F - 69.8 °F 88% 29.92 in 10.0 mi SSW 9.2 mph - N/A   Mostly Cloudy
3:52 AM 73.0 °F - 69.1 °F 87% 29.91 in 10.0 mi SSW 8.1 mph - N/A   Mostly Cloudy
4:36 AM 71.6 °F - 69.8 °F 94% 29.90 in 10.0 mi Variable 3.5 mph - N/A   Scattered Clouds
4:52 AM 71.1 °F - 69.1 °F 93% 29.89 in 10.0 mi South 5.8 mph - N/A   Clear
5:02 AM 71.6 °F - 69.8 °F 94% 29.89 in 10.0 mi South 4.6 mph - N/A   Scattered Clouds
5:14 AM 71.6 °F - 69.8 °F 94% 29.89 in 10.0 mi SSW 6.9 mph - N/A   Mostly Cloudy
6:52 AM 72.0 °F - 70.0 °F 93% 29.89 in 10.0 mi SSW 6.9 mph - N/A   Overcast
7:23 AM 73.4 °F - 69.8 °F 88% 29.89 in 10.0 mi SSW 8.1 mph - N/A   Overcast
7:52 AM 73.9 °F - 69.1 °F 85% 29.89 in 10.0 mi SSW 10.4 mph 17.3 mph N/A   Overcast
8:52 AM 75.0 °F - 70.0 °F 84% 29.88 in 10.0 mi South 8.1 mph 17.3 mph N/A   Overcast
9:15 AM 75.2 °F - 69.8 °F 83% 29.88 in 10.0 mi South 11.5 mph 16.1 mph N/A   Mostly Cloudy
9:22 AM 75.2 °F - 69.8 °F 83% 29.87 in 10.0 mi South 8.1 mph 16.1 mph N/A   Mostly Cloudy
9:52 AM 75.9 °F - 69.1 °F 79% 29.86 in 10.0 mi South 11.5 mph 20.7 mph N/A   Mostly Cloudy
10:00 AM 77.0 °F - 69.8 °F 78% 29.86 in 10.0 mi South 13.8 mph 21.9 mph N/A   Partly Cloudy
10:52 AM 78.1 °F - 68.0 °F 71% 29.85 in 10.0 mi South 11.5 mph 24.2 mph N/A   Partly Cloudy
11:42 AM 78.8 °F - 68.0 °F 69% 29.84 in 10.0 mi South 11.5 mph 21.9 mph N/A   Mostly Cloudy
11:52 AM 78.1 °F - 68.0 °F 71% 29.83 in 10.0 mi South 12.7 mph 24.2 mph N/A   Mostly Cloudy
12:20 PM 80.6 °F 83.2 °F 68.0 °F 65% 29.82 in 10.0 mi South 15.0 mph 25.3 mph N/A   Mostly Cloudy
12:52 PM 80.1 °F 82.7 °F 68.0 °F 67% 29.81 in 10.0 mi South 15.0 mph 25.3 mph N/A   Scattered Clouds
1:45 PM 78.8 °F - 69.8 °F 74% 29.79 in 10.0 mi South 11.5 mph 23.0 mph N/A   Mostly Cloudy
1:52 PM 79.0 °F - 69.1 °F 72% 29.79 in 10.0 mi South 11.5 mph 23.0 mph N/A   Mostly Cloudy
2:20 PM 77.0 °F - 68.0 °F 74% 29.78 in 10.0 mi South 11.5 mph 24.2 mph N/A   Overcast
2:52 PM 78.1 °F - 69.1 °F 74% 29.77 in 10.0 mi South 12.7 mph 23.0 mph N/A   Overcast
3:52 PM 78.1 °F - 71.1 °F 79% 29.73 in 10.0 mi South 10.4 mph 25.3 mph N/A   Overcast
4:52 PM 78.1 °F - 72.0 °F 81% 29.71 in 10.0 mi South 9.2 mph 25.3 mph N/A   Overcast
5:06 PM 78.8 °F - 71.6 °F 78% 29.71 in 10.0 mi South 13.8 mph 24.2 mph N/A   Overcast
5:52 PM 78.1 °F - 72.0 °F 81% 29.69 in 10.0 mi SSW 13.8 mph 21.9 mph N/A   Overcast
6:52 PM 77.0 °F - 73.0 °F 88% 29.68 in 10.0 mi South 13.8 mph 23.0 mph N/A   Overcast
7:52 PM 77.0 °F - 72.0 °F 84% 29.70 in 10.0 mi SSW 12.7 mph 24.2 mph N/A   Overcast
8:52 PM 78.1 °F - 72.0 °F 81% 29.69 in 10.0 mi SSW 18.4 mph 27.6 mph N/A   Overcast
9:29 PM 77.0 °F - 73.4 °F 89% 29.68 in 10.0 mi SSW 17.3 mph 27.6 mph N/A   Overcast
9:52 PM 78.1 °F - 72.0 °F 81% 29.67 in 10.0 mi SSW 17.3 mph 27.6 mph N/A   Overcast
10:41 PM 75.2 °F - 71.6 °F 89% 29.69 in 2.5 mi SW 19.6 mph 25.3 mph 0.07 in Rain Heavy Rain
10:52 PM 73.9 °F - 71.1 °F 91% 29.68 in 2.5 mi SSW 11.5 mph 29.9 mph 0.14 in Rain Heavy Rain
11:00 PM 73.4 °F - 71.6 °F 94% 29.69 in 5.0 mi SW 12.7 mph 25.3 mph 0.01 in Rain Light Rain
11:11 PM 73.4 °F - 71.6 °F 94% 29.70 in 3.0 mi WSW 11.5 mph - 0.07 in Rain Rain
11:14 PM 73.4 °F - 71.6 °F 94% 29.70 in 1.8 mi West 15.0 mph 23.0 mph 0.14 in Rain Heavy Rain
11:52 PM 71.1 °F - 66.9 °F 87% 29.71 in 10.0 mi West 5.8 mph - 0.14 in   Mostly Cloudy